Presure
128 124 111 141 134 141 154 159 175 167 162 188 164 201 175 221 160 186 171 156 185 182 122 215 196 182 192 174 192 176 169 191 174 194 172 203 185 206
156 133 142 129 132 150 173 168 173 196 167 214 180 191 208 172 164 194 181 180 174 192 167 185 175 128 174 193 185 185 169 183 191 168 169 209 208 207
140 166 152 159 147 152 161 175 167 173 194 196 188 185 163 169 174 185 178 168 182 160 173 190 173 193 170 198 184 195 191 202 169 177 183 184 192 220
175 133 119 135 175 181 172 179 154 165 179 211 174 215 177 206 172 189 188 191 162 149 174 199 185 163 183 196 203 164 172 197 180 201 206 211 155 197
128 113 146 146 172 170 177 151 185 172 180 167 176 167 169 187 192 188 171 161 179 182 198 189 181 172 182 186 183 194 194 175 201 181 204 205 207 192
155 176 173 193 175 178 173 178 184 186 177 159 184 185 181 137 172 183 179 194 182 188 198 165 183 187 174 183 182 206 195 184 187 195 194 200 199 227
146 179 156 167 175 187 179 170 191 195 194 180 193 180 169 180 190 179 181 171 175 175 178 175 191 165 184 171 185 185 182 162 195 209 176 201 206 220
154 198 161 187 184 157 163 173 177 180 193 175 174 183 173 162 194 175 186 173 168 180 199 171 203 180 151 197 202 193 167 179 204 179 206 185 198 217
169 183 179 150 171 186 179 193 204 208 211 188 168 163 189 185 187 189 164 185 184 199 170 193 180 182 177 191 182 177 192 194 181 194 199 206 198 217
190 186 206 186 180 187 188 189 185 177 190 194 177 184 161 193 186 202 179 176 204 193 185 184 199 182 180 178 164 190 186 193 192 185 208 211 204 237
213 189 173 194 191 183 197 193 190 162 204 163 165 188 176 181 183 178 164 171 168 166 144 178 177 192 169 186 173 191 207 203 203 186 218 258 268 241
203 194 166 181 209 204 191 177 170 194 199 163 194 175 182 174 181 172 197 197 174 186 182 171 176 198 177 177 169 192 186 179 192 272 246 279 241 246
173 166 194 177 195 186 184 195 186 181 200 190 200 192 191 173 189 212 164 189 184 184 182 187 196 180 179 206 170 179 260 190 235 319 226 270 237 258
196 189 190 189 177 182 207 196 169 176 191 191 184 180 184 169 171 180 191 167 190 182 202 190 188 198 192 169 195 192 201 229 255 247 283 218 250 239
168 171 200 200 200 197 180 169 175 182 188 178 184 188 191 203 200 172 163 187 206 185 184 203 211 199 168 196 202 299 213 309 320 267 233 245 207 273
200 164 181 196 174 198 174 182 201 197 175 183 193 192 170 206 180 193 184 188 205 214 202 188 182 202 238 230 223 294 283 244 297 279 268 237 240 268
194 190 185 210 207 169 196 204 201 195 191 177 196 174 190 206 199 199 186 207 175 198 211 225 191 204 286 234 271 248 253 305 255 262 248 246 249 264
213 188 221 193 218 198 200 191 178 192 201 189 206 190 199 210 196 209 205 201 220 226 208 265 219 249 217 233 239 229 305 274 275 241 252 241 257 262
202 219 203 222 215 213 215 217 213 197 180 212 206 185 194 213 207 204 266 249 223 307 244 227 249 289 312 249 258 239 278 252 271 245 246 262 260 260
225 225 197 202 203 184 202 209 257 248 243 251 229 238 245 233 237 287 244 251 246 274 236 273 215 253 249 205 267 278 245 256 254 247 258 254 252 266
376 352 257 249 243 244 246 272 250 245 243 247 271 253 260 264 255 268 293 266 264 225 249 278 273 268 275 276 280 264 258 253 251 260 242 242 265 271
251 366 317 359 272 232 311 296 323 289 279 293 271 281 260 243 265 254 233 243 263 263 296 254 271 258 266 261 258 256 251 251 246 250 240 250 274 260
400 348 242 248 232 347 311 336 315 285 272 284 236 258 260 274 242 250 281 254 264 295 243 287 263 261 254 258 251 248 250 243 243 247 271 269 253 251
Wind_Speed
51 50 50 54 55 61 63 68 78 74 72 79 67 78 57 75 36 49 39 48 74 73 82 77 78 72 83 36 90 56 57 96 60 101 74 107 81 107
63 52 56 55 52 67 80 74 80 77 73 79 78 82 78 41 37 62 69 62 63 83 41 72 84 88 55 96 82 80 79 82 89 70 74 119 111 104
57 73 72 72 67 68 75 86 80 81 85 87 84 67 38 43 55 75 62 63 74 45 57 93 52 99 53 103 92 107 103 108 62 71 101 93 89 116
79 53 76 61 86 90 80 91 54 64 85 81 61 82 67 74 56 81 89 91 47 66 66 94 89 57 88 97 107 65 62 115 79 116 118 123 86 91
77 67 56 64 83 79 86 63 97 66 87 52 71 53 60 89 87 76 62 56 84 79 103 96 88 61 96 111 91 119 116 76 122 90 121 113 121 87
67 90 82 96 88 87 84 86 97 100 80 50 75 87 84 73 61 87 85 108 79 99 101 60 96 96 76 101 86 116 121 104 113 109 107 116 117 126
84 92 74 86 94 102 96 66 96 105 104 94 99 87 62 88 102 86 89 83 83 81 89 77 114 74 103 77 109 112 98 70 122 132 70 119 130 123
65 108 78 106 105 61 70 93 95 97 105 79 70 84 70 59 102 85 102 76 70 96 114 76 116 97 77 129 128 124 67 93 138 77 141 80 110 127
84 94 98 61 94 106 103 113 112 110 105 101 60 65 105 106 95 100 64 101 107 119 76 107 92 101 102 120 97 86 133 132 91 124 135 134 107 130
102 107 111 105 103 107 100 95 84 87 110 108 86 93 64 113 105 116 95 91 122 120 108 97 126 110 96 95 91 128 120 135 130 101 139 132 116 118
108 110 84 108 107 86 108 109 104 66 116 70 74 110 91 104 111 94 79 75 72 71 80 101 104 132 80 122 93 130 143 144 144 98 135 101 82 93
116 116 75 99 120 120 104 93 81 121 119 80 121 96 110 88 99 82 125 129 88 123 127 94 115 136 99 110 94 137 122 100 129 100 117 74 93 82
99 88 124 104 129 116 109 126 114 105 128 123 127 124 124 93 113 104 72 134 133 120 130 138 140 120 105 138 95 114 129 118 109 61 99 69 87 68
129 125 124 122 105 109 133 128 87 99 126 127 119 111 123 89 93 120 135 91 136 127 145 133 116 134 125 89 136 141 134 123 93 93 64 80 74 71
98 104 134 134 136 126 113 96 108 122 127 113 123 123 127 128 135 103 83 138 144 139 129 141 142 143 91 144 143 88 115 73 59 74 76 71 71 56
141 95 118 133 107 125 105 119 140 137 103 119 138 137 94 139 119 142 134 139 147 137 145 129 121 144 132 129 114 92 77 87 60 59 65 67 69 54
137 131 128 148 149 100 141 148 145 137 126 109 136 101 137 140 144 146 130 142 101 149 152 143 118 133 102 103 93 87 81 57 72 67 68 64 64 54
153 125 153 128 155 146 135 137 113 142 151 133 148 132 144 152 133 146 148 145 149 141 130 111 119 109 109 104 91 83 56 63 59 67 64 68 59 55
140 167 140 168 164 165 160 164 160 133 101 168 156 109 129 157 142 138 125 131 139 103 121 117 102 88 73 84 73 75 60 65 56 66 66 59 57 57
166 176 121 126 134 98 116 137 150 148 156 146 160 152 144 151 151 108 124 117 116 98 112 90 106 88 84 86 63 58 64 66 66 67 64 61 60 56
95 93 144 155 161 168 164 132 157 156 157 145 119 133 123 120 124 112 91 107 103 107 100 70 68 70 65 63 58 60 62 63 65 63 62 63 59 52
131 86 97 84 121 122 104 108 90 109 113 103 114 106 122 121 112 119 114 112 102 95 59 80 59 65 59 61 62 60 62 64 64 63 63 65 53 51
57 72 132 122 127 68 92 78 88 104 111 105 119 110 118 104 118 117 83 107 92 55 86 54 54 57 58 60 62 62 63 62 62 67 58 54 56 56
Wind_Direction
284 276 294 298 279 303 307 307 301 307 309 302 307 305 305 305 287 319 322 280 325 333 302 323 330 342 343 328 345 335 303 345 304 346 301 342 329 339
278 287 287 284 293 307 295 303 302 292 308 297 307 303 305 310 305 292 331 328 323 326 313 325 319 298 326 340 343 337 311 342 343 295 302 341 341 338
282 276 276 292 306 304 303 296 304 302 298 298 307 310 303 299 318 325 315 314 325 291 313 333 329 335 305 337 339 340 340 342 293 322 329 321 332 339
279 277 269 292 288 287 298 292 305 295 299 299 314 303 324 303 324 317 320 319 296 275 328 323 334 291 336 328 331 287 319 337 331 335 336 336 304 333
275 291 299 293 290 292 292 285 294 307 302 302 313 298 315 317 314 315 323 295 327 321 324 327 329 320 331 334 330 333 334 320 335 320 335 336 337 329
287 280 289 279 292 294 291 297 296 296 302 294 285 311 318 279 314 308 320 317 302 321 321 300 326 325 310 332 326 330 333 333 328 323 334 334 334 333
265 283 297 293 290 285 294 298 294 295 296 301 302 295 310 315 310 307 315 317 322 316 320 317 325 306 330 307 330 330 327 284 332 330 310 330 332 331
297 269 303 278 283 297 301 300 299 299 293 306 303 304 301 297 305 307 312 317 301 321 321 314 319 325 280 326 327 328 293 323 326 319 327 319 330 326
292 281 284 287 293 284 291 286 290 292 294 305 298 288 306 313 308 312 291 314 319 312 311 319 318 318 316 325 325 314 325 325 318 323 325 321 322 322
278 279 276 282 288 290 293 294 290 298 299 299 305 303 288 305 307 306 315 314 310 315 317 308 318 320 311 318 305 324 323 322 322 316 320 319 316 317
275 280 286 287 291 287 293 295 298 281 297 287 286 300 304 308 307 303 287 295 302 301 279 316 319 317 298 322 314 320 318 318 318 309 315 309 308 314
278 284 285 293 289 291 295 300 291 298 295 281 299 304 305 303 307 299 306 306 306 312 314 313 317 312 311 316 307 318 318 311 315 304 309 300 314 313
288 290 284 290 287 295 294 292 301 298 294 298 295 300 301 291 303 295 291 308 310 303 310 310 310 310 306 311 304 311 305 307 311 291 311 297 311 305
277 284 288 285 293 292 286 292 289 291 295 297 298 297 300 296 297 302 301 300 304 308 300 307 301 309 312 298 311 310 309 308 307 303 290 307 301 304
282 286 279 282 284 284 285 288 292 292 290 294 298 296 293 290 293 296 289 299 295 302 304 304 300 304 297 309 307 293 305 289 286 293 298 298 302 296
275 276 285 285 283 278 283 289 284 284 285 291 290 291 287 288 294 294 296 300 296 296 302 303 304 304 300 303 301 295 295 303 282 281 285 293 295 292
277 279 281 280 282 276 284 283 284 288 283 284 285 284 292 288 292 294 293 293 292 300 296 296 299 301 291 301 297 301 299 278 290 282 291 287 292 291
275 279 273 282 277 279 278 284 280 285 283 287 286 287 288 290 291 292 295 295 294 297 296 290 302 295 301 300 299 297 277 278 274 289 281 286 288 287
276 273 282 275 277 275 279 278 280 281 275 283 287 280 286 288 291 291 279 285 295 278 290 297 291 286 281 295 292 288 275 284 272 282 282 284 284 284
273 271 276 276 275 274 277 282 274 275 278 278 284 282 282 285 286 275 285 285 290 279 290 285 297 291 293 286 279 271 284 278 276 279 280 281 281 281
253 253 268 268 270 271 273 266 273 273 277 278 269 276 274 274 278 274 272 280 283 294 287 282 280 281 273 273 270 272 274 274 275 275 276 277 278 277
267 247 260 250 259 273 255 257 255 258 263 261 266 265 271 279 273 278 287 286 282 285 270 284 274 281 271 271 270 269 270 270 272 273 275 276 276 274
225 239 265 266 271 251 254 252 255 259 265 261 275 271 270 269 278 279 276 283 283 264 288 264 269 267 269 266 267 270 270 272 275 276 277 275 272 273